Weather observations for the past three days for
Erie, Erie International Airport
Imperial (Metric)
Date Time (edt) Wind (mph) Vis. (mi.) Weather Sky Cond. Temperature (ºF) Relative Humidity Wind Chill (°F) Heat Index (°F) Pressure Precipitation (in)
Air Dwpt 6 hour altimeter (in) sea level (mb) 1 hr 3 hr 6 hr
Max. Min.
20 06:51 SE 7 10.00 Fair CLR 73 66 79% 30.29 1025.3
20 05:51 Calm 10.00 Fair CLR 72 64.9 79% 30.3 1025.4
20 04:51 SE 5 10.00 Fair CLR 72 64.9 79% 30.28 1025.0
20 03:51 E 7 10.00 Fair CLR 72 66 82% 30.32 1026.4
20 02:51 Vrbl 6 10.00 Overcast OVC028 73 66 79% 30.32 1026.3
20 01:51 Calm 7.00 Partly Cloudy SCT070 79 73 86 79 82% 82 30.29 1025.2
20 00:51 S 3 7.00 Fair CLR 79 73.9 85% 83 30.29 1025.0
19 23:51 S 6 7.00 Fair CLR 80.1 73.9 82% 85 30.27 1024.5
19 22:51 Calm 8.00 Fair CLR 81 73.9 79% 86 30.28 1024.9
19 21:51 Calm 9.00 Fair CLR 82.9 73.9 74% 89 30.28 1024.8
19 20:51 NE 5 9.00 Fair CLR 82.9 73.9 74% 89 30.26 1024.3
19 19:51 N 6 9.00 Fair CLR 84.9 73.9 91 81 70% 92 30.24 1023.5
19 18:51 NW 3 9.00 Fair CLR 86 73.9 67% 94 30.24 1023.5
19 17:51 N 5 10.00 Mostly Cloudy BKN031 88 75 66% 98 30.25 1023.7
19 16:51 E 5 9.00 Fair CLR 88 75 66% 98 30.26 1024.0
19 15:51 N 8 8.00 Mostly Cloudy BKN035 BKN046 81 73 77% 86 30.27 1024.6
19 14:51 SW 6 10.00 Fair CLR 89.1 75 63% 99 30.27 1024.3
19 13:51 S 8 10.00 Fair CLR 88 73.9 88 78.1 63% 97 30.27 1024.5
19 12:51 S 6 10.00 Fair CLR 88 73.9 63% 97 30.27 1024.6
19 11:51 S 5 10.00 Fair CLR 84.9 73 68% 92 30.28 1024.9
19 10:51 S 7 10.00 Fair CLR 82.9 73 72% 89 30.28 1024.9
19 09:51 S 7 10.00 Fair CLR 80.1 72 76% 84 30.29 1025.2
19 08:51 S 7 10.00 Fair CLR 80.1 71.1 74% 84 30.28 1024.8
19 07:51 S 8 10.00 Fair CLR 78.1 70 78.1 75 76% 80 30.26 1024.3
19 06:51 S 7 10.00 Fair CLR 75.9 69.1 79% 77 30.25 1024.1
19 05:51 S 10 10.00 Mostly Cloudy BKN110 75.9 69.1 79% 77 30.24 1023.5
19 04:51 S 10 10.00 Fair CLR 75.9 69.1 79% 77 30.22 1022.8
19 03:51 S 14 10.00 Fair CLR 77 68 74% 79 30.2 1022.0
19 02:51 S 10 10.00 Fair CLR 75.9 66.9 74% 77 30.19 1021.8
19 01:51 S 12 10.00 Fair CLR 75.9 66.9 75.9 73 74% 77 30.18 1021.4
19 00:51 S 13 10.00 Fair CLR 73.9 66.9 79% 30.18 1021.3
18 23:51 S 9 10.00 Fair CLR 73.9 66 76% 30.18 1021.3
18 22:51 S 9 10.00 Fair CLR 73.9 66.9 79% 30.17 1021.2
18 21:51 S 10 10.00 Fair CLR 73.9 66.9 79% 30.17 1021.1
18 20:51 S 10 10.00 Fair CLR 75 68 79% 76 30.14 1020.2
18 19:51 S 10 10.00 A Few Clouds FEW080 FEW100 75 69.1 91 73 82% 75 30.16 1020.9 0.12
18 18:51 S 9 9.00 Light Rain BKN110 73.9 69.1 85% 30.19 1021.8 0.07
18 17:51 SW 8 10.00 Thunderstorm Light Rain SCT110 75 69.1 82% 75 30.21 1022.4
18 16:51 NW 10 7.00 Thunderstorm Light Rain NULL 77 71.1 82% 79 30.21 1022.5 0.05 0.05
18 15:51 N 7 10.00 Fair CLR 84.9 70 61% 89 30.15 1020.4
18 14:51 N 9 10.00 A Few Clouds FEW100 90 71.1 54% 96 30.16 1020.5
18 13:51 N 8 10.00 Partly Cloudy SCT050 SCT060 89.1 70 91 79 53% 94 30.17 1021.0
18 12:51 NW 5 10.00 Fair CLR 91 71.1 52% 98 30.18 1021.3
18 11:51 Calm 9.00 Fair CLR 91 71.1 52% 98 30.18 1021.3
18 10:51 Calm 10.00 Fair CLR 88 71.1 57% 94 30.18 1021.4
18 09:51 S 8 10.00 Fair CLR 86 70 59% 91 30.18 1021.2
18 08:51 S 9 10.00 Fair CLR 82 69.1 65% 85 30.17 1021.0
18 07:51 S 7 10.00 A Few Clouds FEW060 79 68 79 75 69% 81 30.15 1020.5
18 06:51 S 6 10.00 Fair CLR 77 66 69% 79 30.14 1020.0
18 05:51 S 8 10.00 Fair CLR 75.9 64.9 69% 78 30.12 1019.4
18 04:51 S 9 10.00 Fair CLR 75.9 66 72% 77 30.1 1018.8
18 03:51 S 13 10.00 Mostly Cloudy BKN120 75.9 66 72% 77 30.1 1018.4
18 02:51 S 10 10.00 Fair CLR 78.1 66.9 69% 80 30.09 1018.4
18 01:51 S 12 10.00 A Few Clouds FEW070 78.1 66 82.9 77 67% 80 30.09 1018.3
18 00:51 S 14 10.00 Fair CLR 77 64 64% 79 30.09 1018.3
17 23:51 S 10 10.00 Partly Cloudy SCT075 77 64 64% 79 30.09 1018.4
17 22:51 S 10 10.00 Fair CLR 78.1 64 62% 80 30.08 1018.0
17 21:51 S 10 10.00 Fair CLR 79 64 60% 81 30.05 1016.9
17 20:51 S 12 10.00 Fair CLR 81 64.9 58% 83 30.04 1016.6
17 19:51 S 9 10.00 Fair CLR 82.9 66 91 82.9 57% 85 30.05 1017.0
17 18:51 S 8 10.00 Fair CLR 84 68 59% 87 30.04 1016.6
17 17:51 SW 7 10.00 Fair CLR 86 68 55% 89 30.03 1016.2
17 16:51 W 9 10.00 Fair CLR 88 68 52% 92 30.03 1016.4
17 15:51 W 8 10.00 A Few Clouds FEW060 89.1 69.1 52% 94 30.04 1016.5
17 14:51 SW 9 10.00 Fair CLR 90 69.1 50% 95 30.04 1016.8
17 13:51 S 8 10.00 Fair CLR 89.1 70 89.1 77 53% 94 30.05 1017.1
17 12:51 SW 9 10.00 Fair CLR 86 66.9 53% 89 30.07 1017.6
17 11:51 S 8 10.00 Fair CLR 86 66 51% 88 30.08 1018.0
17 10:51 S 8 10.00 Fair CLR 84 64.9 53% 86 30.08 1018.1
17 09:51 SW 8 10.00 Partly Cloudy SCT070 81 64 57% 83 30.08 1018.1
17 08:51 S 9 10.00 Fair CLR 79 63 58% 81 30.08 1018.1
17 07:51 S 8 10.00 Fair CLR 77 62.1 77 72 60% 79 30.07 1017.8
Date Time (edt) Wind (mph) Vis. (mi.) Weather Sky Cond. Air Dwpt Max. Min. Relative Humidity Wind Chill (°F) Heat Index (°F) altimeter (in) sea level (mb) 1 hr 3 hr 6 hr
6 hour
Temperature (ºF) Pressure Precipitation (in)